Home > Weather > Clearwater > Past weeks

Flag for USA Past Weather in Clearwater, Florida, USA — Yesterday and Last 2 Weeks

Now
84 °F

Sunny.


Feels Like: 92 °F
Forecast: 80 / 92 °F
Wind: 7 mph from Southeast

Location: St. Petersburg / Clearwater International Airport

Current Time: Jul 27, 2016 at 9:29:09 AM

Latest Report: Jul 27, 2016 at 8:53 AM


Visibility: 10 mi

Pressure: 30.09 "Hg

Humidity: 74%

Dew Point: 75 °F

Location of ClearwaterLocation

Past Weather in Clearwater — Graph

°F

Clearwater Temperature Yesterday

Maximum temperature yesterday: 92 °F (at 5:53 PM)
Minimum temperature yesterday: 75 °F (at 2:53 AM)
Average temperature yesterday: 84 °F

High & Low Weather Summary for the Past Weeks

 TemperatureHumidityPressure
High95 °F (Jul 17, 4:53 PM)90% (Jul 22, 8:53 PM)30.22 "Hg (Jul 22, 8:53 PM)
Low75 °F (Jul 12, 10:53 PM)41% (Jul 17, 6:53 PM)29.98 "Hg (Jul 23, 8:53 PM)
Average83 °F70%30.08 "Hg
* Reported Jul 12 7:53 AM — Jul 27 7:53 AM, Clearwater, Weather by CustomWeather, © 2016

Note: Actual official high and low records may vary slightly from our data, if they occured in-between our weather recording intervals... More about our weather records

Advertising

Clearwater Weather History for the Previous 24 Hours

Scroll right to see more
 ConditionsComfort  
Time TempWeatherWind HumidityBarometerVisibility
7:53 AM
Wed, Jul 27
82 °FSunny.6 mph74%30.07 "Hg10 mi
6:53 AM81 °FClear.6 mph74%30.06 "Hg10 mi
5:53 AM82 °FClear.6 mph74%30.05 "Hg10 mi
4:53 AM82 °FPassing clouds.5 mph70%30.06 "Hg10 mi
3:53 AM81 °FPassing clouds.No wind82%30.05 "Hg10 mi
2:53 AM81 °FClear.3 mph82%30.07 "Hg10 mi
1:53 AM83 °FClear.6 mph74%30.07 "Hg10 mi
12:53 AM84 °FPassing clouds.7 mph63%30.07 "Hg10 mi
11:53 PM
Tue, Jul 26
84 °FClear.3 mph70%30.08 "Hg10 mi
10:53 PM82 °FClear.3 mph77%30.06 "Hg10 mi
9:53 PM83 °FClear.No wind72%30.06 "Hg10 mi
8:53 PM86 °FThunderstorms. Scattered clouds.6 mph65%30.04 "Hg10 mi
7:53 PM88 °FPassing clouds.7 mph61%30.03 "Hg10 mi
6:53 PM90 °FSunny.9 mph59%30.01 "Hg10 mi
5:53 PM92 °FSunny.10 mph56%30.01 "Hg10 mi
4:53 PM91 °FBroken clouds.9 mph57%30.01 "Hg10 mi
3:53 PM91 °FSunny.8 mph52%30.03 "Hg10 mi
2:53 PM91 °FPassing clouds.6 mph54%30.05 "Hg10 mi
1:53 PM91 °FBroken clouds.9 mph56%30.07 "Hg10 mi
12:53 PM89 °FPassing clouds.8 mph59%30.08 "Hg10 mi
11:53 AM89 °FSunny.7 mph63%30.09 "Hg10 mi
10:53 AM87 °FSunny.8 mph65%30.09 "Hg10 mi
9:53 AM84 °FSunny.12 mph67%30.09 "Hg10 mi
Weather by CustomWeather, © 2016

See weather overviewHow to use our weather pages